星链-2591 (STARLINK-2591 )

导读 | 星芒AI

STARLINK-2591 是 SpaceX Starlink 卫星互联网项目中的一颗低轨卫星,属于第二代 Starlink 卫星(Gen2)系列。该卫星于2023年发射,旨在为全球用户提供高速、低延迟的宽带互联网服务。相比第一代卫星,STARLINK-2591 采用更先进的通信技术和更高的轨道,具备更强的信号覆盖能力和数据传输效率。其部署有助于扩展 Starlink 在偏远地区和高需求区域的网络覆盖,提升整体服务质量和用户体验。

基本信息
目录编号:
48361
目录名称:
STARLINK-2591
国际标识:
2021-038J
轨道中心:
EARTH
卫星名称:
星链-2591
卫星全名:
星链-2591 (STARLINK-2591 )
卫星状态:
在轨 (已飞行1640 天)
发射日期:
2021-05-04 UTC
国别 :
美国 (US)
星等 :
--
轨道信息
数据来源 国际轨道数据
星历时间: 2025-10-30T09:38:25+0800
11小时前
查看轨道信息
半长轴: 6925.355km
偏心率: 0.0001589
轨道倾角: 53.053°
近地点辐角 80.949°
升交点赤经 227.998°
平近点角 279.168°
近地点: 546.119km
远地点: 548.321km
周期: 95.592分钟
每日圈数: 15.063979
详细信息
固有亮度:
5
最大亮度:
2.5
卫星平台:
Starlink V1.0
覆盖范围:
全球
运营商:
太空探索技术公司
运营商所在国:
美国
制造商(研发单位):
太空探索技术公司
制造商所在国:
美国
使用方式:
暂无
卫星简介
星链(Starlink)计划是由太空探索技术公司(SpaceX)提出的一个巨型低轨卫星互联网星座项目,计划在2019年至2024年间在太空搭建由约1.2万颗卫星组成的“星链”网络,其中1584颗将部署在地球上空550千米处的近地轨道,并从2020年开始工作。该卫星仍在工作。
2D轨道图
3D轨道图
轨道高度分析图
轨道倾角分析图
轨道综合分析图
查看轨道综合分析图